E. V. Spence Reservoir Weather Center

Moon Phase Calendar



E. V. Spence Reservoir Water Level
Online Cameras

 


      

Current Conditions in Robert Lee
9/19/2021 3:06:17 PM

94°F
Feels Like 96
Clear
Humidity
36%
Pressure
29.8"
Wind
9 mph (NE)
Dew Point
63°F
UV Index
8/10 (Very High)
Visibility
6 mi

Hourly Forecast

Date & Time Sun, Sep 19
3:00 PM
Sun, Sep 19
4:00 PM
Sun, Sep 19
5:00 PM
Sun, Sep 19
6:00 PM
Sun, Sep 19
7:00 PM
Sun, Sep 19
8:00 PM
Sun, Sep 19
9:00 PM
Sun, Sep 19
10:00 PM
Sun, Sep 19
11:00 PM
Mon, Sep 20
12:00 AM
Mon, Sep 20
1:00 AM
Mon, Sep 20
2:00 AM
Mon, Sep 20
3:00 AM
Mon, Sep 20
4:00 AM
Mon, Sep 20
5:00 AM
Mon, Sep 20
6:00 AM
Mon, Sep 20
7:00 AM
Mon, Sep 20
8:00 AM
Mon, Sep 20
9:00 AM
Mon, Sep 20
10:00 AM
Mon, Sep 20
11:00 AM
Mon, Sep 20
12:00 PM
Mon, Sep 20
1:00 PM
Mon, Sep 20
2:00 PM
Mon, Sep 20
3:00 PM
Mon, Sep 20
4:00 PM
Mon, Sep 20
5:00 PM
Mon, Sep 20
6:00 PM
Mon, Sep 20
7:00 PM
Mon, Sep 20
8:00 PM
Mon, Sep 20
9:00 PM
Mon, Sep 20
10:00 PM
Mon, Sep 20
11:00 PM
Tue, Sep 21
12:00 AM
Tue, Sep 21
1:00 AM
Tue, Sep 21
2:00 AM
Tue, Sep 21
3:00 AM
Tue, Sep 21
4:00 AM
Tue, Sep 21
5:00 AM
Tue, Sep 21
6:00 AM
Tue, Sep 21
7:00 AM
Tue, Sep 21
8:00 AM
Tue, Sep 21
9:00 AM
Tue, Sep 21
10:00 AM
Tue, Sep 21
11:00 AM
Tue, Sep 21
12:00 PM
Tue, Sep 21
1:00 PM
Tue, Sep 21
2:00 PM
Condition
Clear

Clear

Clear

Clear

Clear

Clear

Clear

Clear

Clear

Clear

Clear

Clear

Clear

Clear

Clouds

Clouds

Clouds

Clear

Clear

Clouds

Clouds

Clouds

Clouds

Clouds

Clouds

Clouds

Clouds

Clouds

Clouds

Clouds

Clouds

Clouds

Clouds

Clouds

Clouds

Clouds

Clouds

Clouds

Clouds

Clouds

Clouds

Clouds

Clouds

Clouds

Clouds

Clouds

Clouds

Clouds
Temperature 94°F95°F95°F94°F92°F85°F83°F82°F82°F80°F78°F77°F76°F76°F76°F76°F75°F75°F80°F86°F91°F95°F98°F100°F101°F101°F100°F99°F94°F90°F87°F85°F84°F82°F84°F85°F84°F81°F81°F80°F78°F75°F74°F75°F77°F79°F81°F83°F
Feels Like 96°F95°F94°F93°F89°F83°F82°F81°F81°F80°F78°F76°F75°F75°F75°F75°F75°F75°F80°F85°F89°F92°F95°F97°F97°F97°F97°F95°F92°F87°F84°F83°F82°F81°F82°F83°F82°F81°F80°F80°F77°F74°F73°F74°F76°F79°F80°F81°F
Cloudiness 0%0%0%0%0%0%0%0%0%2%3%1%2%5%13%19%18%7%8%22%30%35%40%100%94%95%92%93%94%100%100%100%94%92%93%99%96%91%93%94%95%94%82%77%74%79%83%100%
Visibility 6 mi6 mi6 mi6 mi6 mi6 mi6 mi6 mi6 mi6 mi6 mi6 mi6 mi6 mi6 mi6 mi6 mi6 mi6 mi6 mi6 mi6 mi6 mi6 mi6 mi6 mi6 mi6 mi6 mi6 mi6 mi6 mi6 mi6 mi6 mi6 mi6 mi6 mi6 mi6 mi6 mi6 mi6 mi6 mi6 mi6 mi6 mi6 mi
Precipitation 0%0%0%0%0%0%0%0%0%0%0%0%0%0%0%0%0%0%0%0%0%0%0%0%0%0%0%0%0%0%0%0%0%0%0%0%0%0%0%0%0%0%0%0%0%0%0%0%
Humidity 36%33%30%28%28%32%33%33%33%36%39%42%44%45%43%44%48%50%44%36%30%24%20%18%17%18%18%19%23%26%28%29%31%34%32%33%35%38%39%41%43%42%40%39%38%37%35%31%
Dew Point 63°F61°F58°F56°F54°F51°F51°F50°F50°F50°F50°F51°F52°F52°F51°F52°F53°F55°F56°F56°F55°F52°F50°F49°F48°F49°F49°F50°F50°F50°F49°F49°F49°F50°F51°F52°F53°F53°F53°F53°F53°F50°F47°F48°F49°F50°F50°F49°F
Pressure 29.8"29.8"29.8"29.77"29.8"29.8"29.8"29.83"29.83"29.83"29.83"29.8"29.8"29.77"29.77"29.8"29.8"29.8"29.83"29.83"29.8"29.8"29.77"29.77"29.74"29.71"29.71"29.71"29.71"29.74"29.77"29.8"29.8"29.83"29.83"29.83"29.83"29.85"29.88"29.91"29.97"30.03"30.06"30.12"30.15"30.15"30.15"30.15"
Wind Speed 5.7 mph6.4 mph7.1 mph8 mph9 mph8.8 mph7.4 mph7 mph8.7 mph9 mph9 mph9.2 mph7.7 mph8.2 mph9.5 mph10.9 mph10.7 mph11.1 mph13.7 mph17 mph16.8 mph17.2 mph16.8 mph16 mph15.8 mph15 mph14 mph13.2 mph9.7 mph9 mph9.7 mph9.2 mph7.8 mph6.9 mph11.8 mph15.4 mph13.9 mph11.5 mph2.9 mph3.5 mph12.1 mph17.6 mph22.6 mph23.7 mph21.9 mph21.3 mph22.2 mph22.2 mph
Wind
Direction
128°
SE
126°
SE
124°
SE
127°
SE
131°
SE
137°
SE
153°
SSE
159°
SSE
160°
SSE
172°
S
163°
SSE
167°
SSE
168°
SSE
190°
S
204°
SSW
206°
SSW
209°
SSW
211°
SSW
216°
SW
217°
SW
217°
SW
214°
SW
218°
SW
221°
SW
216°
SW
207°
SSW
195°
SSW
195°
SSW
189°
S
180°
S
183°
S
185°
S
206°
SSW
216°
SW
199°
SSW
210°
SSW
205°
SSW
205°
SSW
247°
WSW
27°
NNE
29°
NNE
23°
NNE
20°
NNE
32°
NNE
33°
NNE
32°
NNE
27°
NNE
26°
NNE

Daily Forecast

Date High Low Precip. Humidity
Today
Sep 19

Clear
95 °F
71 °F
0%
33%
Monday
Sep 20

Clouds
101 °F
75 °F
0%
20%
Tuesday
Sep 21

Clouds
85 °F
72 °F
0%
35%
Wednesday
Sep 22

Clear
82 °F
58 °F
0%
19%
Thursday
Sep 23

Clear
85 °F
58 °F
0%
18%
Friday
Sep 24

Clouds
87 °F
59 °F
0%
21%
Saturday
Sep 25

Clear
92 °F
64 °F
0%
18%
Sunday
Sep 26

Clouds
95 °F
68 °F
0%
16%
Monday
Sep 27

Clouds
97 °F
68 °F
0%
14%
Tuesday
Sep 28

Clouds
93 °F
67 °F
0%
18%
Wednesday
Sep 29

Clouds
84 °F
63 °F
0%
20%
Thursday
Sep 30

Clear
89 °F
59 °F
3%
23%
Friday
Oct 1

Clear
94 °F
65 °F
3%
30%
Saturday
Oct 2

Clear
94 °F
68 °F
0%
29%
Sunday
Oct 3

Clouds
94 °F
67 °F
1%
24%
Monday
Oct 4

Clouds
93 °F
69 °F
13%
30%

Temperature 8-14 Day Outlook



Precipitation 8-14 Day Outlook




Quick Links
E. V. Spence Reservoir News
E. V. Spence Reservoir Photos
E. V. Spence Reservoir Videos




About Us
Contact Us
Site Map
Search Site
Advertise With Us
   
Spence.LakesOnline.com
THE E. V. SPENCE RESERVOIR WEBSITE

Copyright 2021, Lakes Online
Privacy    |    Legal